TOURFACTS.DK  
Stats and Facts from Tour de France.

Tour de France 2018 starts in 200 days
  Riders   Stages   Teams   Summits   Yearly  


 
Search by year

 2017 - St. 21:  14824 starters.
  5132 different riders.
  635 teams.
  2232 stages.
  454 restdays.
  439589.60 km.
  5653 abandonnees.


Top 3
Christopher Froome86:20:55
Rigoberto Uran86:21:49
Romain Bardet86:23:15
Warren Barguil169 pt.
Primoz Roglic80 pt.
Thomas De Gendt64 pt.
Michael Matthews359 pt.
André Greipel234 pt.
Edvald Boasson Hagen220 pt.
Simon Yates86:27:09
Louis Meintjes86:29:15
Emanuel Buchmann86:54:16
Facts from Tour de France 2009
  |   Stages.  |   Stage winners.  |   Days in yellow  |   Average speed.  |   Route.  |   Teams.  |   All riders.  |   Rookies.  |   Withdrawls.  |  

  |   GC.  |   Polka  |   Green  |   White  |   Summits. (In tour)  |   Summits. (Points)  |   Miscellaneous.  |  

Stage 1 on 04 - 07 - 2009
         Owning:    Fabian Cancellara    
Pick a stage:  1 2 3 4 5 6 7 8 9 10 11 12 13 14 15 16 17 18 19 20 21
  MonacoMonaco | Dist: 15.50 km.
Cat: 4Côte de BeausoleilESPAlberto Contador
3 points
 

Average speed for all riders in stage:  43,595 km./hr.
    Place:Name:Team:Time:Km/h:
SUIFabian CancellaraDNKTeam Saxo Bank00:19:32  +  00:00:00=47,611 
ESPAlberto ContadorKAZAstana Pro Team00:19:50  +  00:00:18=46,891 
BELBradley WigginsUSAGarmin-Slipstream00:19:51  +  00:00:19=46,851 
4 GERAndréas KlödenKAZAstana Pro Team00:19:54  +  00:00:22=46,734 
5 AUSCadel EvansBELSilence-Lotto00:19:55  +  00:00:23=46,695 
6 USALevi LeipheimerKAZAstana Pro Team00:20:02  +  00:00:30=46,423 
7 CZERoman KreuzigerITALiquigas00:20:04  +  00:00:32=46,346 
8 GERTony MartinUSATeam Columbia-HTC00:20:05  +  00:00:33=46,307 
9 ITAVincenzo NibaliITALiquigas00:20:09  +  00:00:37=46,154 
10 USALance ArmstrongKAZAstana Pro Team00:20:12  +  00:00:40=46,040 
11 SWEGustav LarssonDNKTeam Saxo Bank00:20:13  +  00:00:41=46,002 
12 ESPMikel AstarlozaESPEuskaltel - Euskadi00:20:16  +  00:00:44=45,888 
13 USADavid ZabriskieUSAGarmin-Slipstream00:20:19  +  00:00:47=45,775 
14 MLTDavid MillarUSAGarmin-Slipstream00:20:20  +  00:00:48=45,738 
15 FRAJérôme CoppelFRAFrancaise Des Jeux00:20:23  +  00:00:51=45,626 
16 FRASylvain ChavanelBELQuick Step00:20:28  +  00:00:56=45,440 
17 USAChristian VandeveldeUSAGarmin-Slipstream00:20:29  +  00:00:57=45,403 
18 LUXAndy SchleckDNKTeam Saxo Bank00:20:32  +  00:01:00=45,292 
19 GERLinus GerdemannDEUTeam Milram00:20:35  +  00:01:03=45,182 
20 FRARémi PauriolFRACofidis Le Credit En Ligne00:20:37  +  00:01:05=45,109 
21 ESPCarlos SastreCHECervelo Test Team00:20:38  +  00:01:06=45,073 
22 RUSVladimir KarpetsRUSTeam Katusha00:20:39  +  00:01:07=45,036 
23 ITAAlessandro BallanITALampre-N.G.C00:20:42  +  00:01:10=44,928 
24 BELMaxime MonfortUSATeam Columbia-HTC00:20:42  +  00:01:10=44,928 
25 BELJurgen Van Den BroeckBELSilence-Lotto00:20:43  +  00:01:11=44,891 
26 FRALaurent LefèvreFRABbox Bouygues Telecom00:20:44  +  00:01:12=44,855 
27 AUSMichael RogersUSATeam Columbia-HTC00:20:45  +  00:01:13=44,819 
28 FRANicolas VogondyFRAAgritubel00:20:45  +  00:01:13=44,819 
29 FRAChristophe RiblonFRAAg2r La Mondiale00:20:46  +  00:01:14=44,783 
30 ESPJuan José OrozESPEuskaltel - Euskadi00:20:46  +  00:01:14=44,783 
31 NEDRobert GesinkNLDRabobank00:20:47  +  00:01:15=44,747 
32 ESPGorka VerdugoESPEuskaltel - Euskadi00:20:47  +  00:01:15=44,747 
33 PORSergio PaulinhoKAZAstana Pro Team00:20:47  +  00:01:15=44,747 
34 USAGeorge HincapieUSATeam Columbia-HTC00:20:49  +  00:01:17=44,676 
35 ITAMarzio BruseghinITALampre-N.G.C00:20:49  +  00:01:17=44,676 
36 FRAWilliam BonnetFRABbox Bouygues Telecom00:20:51  +  00:01:19=44,604 
37 USADanny PateUSAGarmin-Slipstream00:20:52  +  00:01:20=44,569 
38 GERJens VoigtDNKTeam Saxo Bank00:20:54  +  00:01:22=44,498 
39 NORKurt Asle ArvesenDNKTeam Saxo Bank00:20:56  +  00:01:24=44,427 
40 ITARinaldo NocentiniFRAAg2r La Mondiale00:20:56  +  00:01:24=44,427 
41 DENBrian VandborgITALiquigas00:20:58  +  00:01:26=44,356 
42 ESPLuis RodriguezESPCaisse d´Epargne00:20:58  +  00:01:26=44,356 
43 FRANicolas RocheFRAAg2r La Mondiale00:20:59  +  00:01:27=44,321 
44 CANRyder HesjedalUSAGarmin-Slipstream00:20:59  +  00:01:27=44,321 
45 FRADavid Le LayFRAAgritubel00:21:00  +  00:01:28=44,286 
46 NEDStef ClementNLDRabobank00:21:00  +  00:01:28=44,286 
47 ESPCarlos BarredoBELQuick Step00:21:00  +  00:01:28=44,286 
48 AUSHeinrich HausslerCHECervelo Test Team00:21:01  +  00:01:29=44,251 
49 FRASandy CasarFRAFrancaise Des Jeux00:21:01  +  00:01:29=44,251 
50 FRADavid MoncoutiéFRACofidis Le Credit En Ligne00:21:02  +  00:01:30=44,216 
51 FINJussi VeikkanenFRAFrancaise Des Jeux00:21:02  +  00:01:30=44,216 
52 FRAJérôme PineauBELQuick Step00:21:03  +  00:01:31=44,181 
53 RUSDenis MenchovNLDRabobank00:21:03  +  00:01:31=44,181 
54 ESPHaimar ZubeldiaKAZAstana Pro Team00:21:03  +  00:01:31=44,181 
55 UKRVolodymir GustovCHECervelo Test Team00:21:03  +  00:01:31=44,181 
56 DENNicki SørensenDNKTeam Saxo Bank00:21:04  +  00:01:32=44,146 
57 FRALloyd MondoryFRAAg2r La Mondiale00:21:04  +  00:01:32=44,146 
58 ESPÓscar PereiroESPCaisse d´Epargne00:21:05  +  00:01:33=44,111 
59 NEDNiki TerpstraDEUTeam Milram00:21:05  +  00:01:33=44,111 
60 ITAAlessandro VanottiITALiquigas00:21:05  +  00:01:33=44,111 
61 ITAFranco PellizottiITALiquigas00:21:05  +  00:01:33=44,111 
62 RUSSerguei IvanovRUSTeam Katusha00:21:07  +  00:01:35=44,041 
63 NEDLaurens ten DamNLDRabobank00:21:08  +  00:01:36=44,006 
64 PORRui CostaESPCaisse d´Epargne00:21:08  +  00:01:36=44,006 
65 BELSébastien RosselerBELQuick Step00:21:08  +  00:01:36=44,006 
66 FRAPierrick FédrigoFRABbox Bouygues Telecom00:21:08  +  00:01:36=44,006 
67 LUXFränk SchleckDNKTeam Saxo Bank00:21:08  +  00:01:36=44,006 
68 FRAJérémy RoyFRAFrancaise Des Jeux00:21:08  +  00:01:36=44,006 
69 ESPIgor AntonESPEuskaltel - Euskadi00:21:10  +  00:01:38=43,937 
70 SVKPeter VelitsDEUTeam Milram00:21:10  +  00:01:38=43,937 
71 RUSMikhail IgnatyevRUSTeam Katusha00:21:10  +  00:01:38=43,937 
72 GERJohannes FröhlingerDEUTeam Milram00:21:11  +  00:01:39=43,902 
73 GERMarkus FothenDEUTeam Milram00:21:11  +  00:01:39=43,902 
74 FRAMaxime BouetFRAAgritubel00:21:11  +  00:01:39=43,902 
75 SLOSimon SpilakITALampre-N.G.C00:21:12  +  00:01:40=43,868 
76 COLRigoberto UranESPCaisse d´Epargne00:21:14  +  00:01:42=43,799 
77 USATyler FarrarUSAGarmin-Slipstream00:21:14  +  00:01:42=43,799 
78 GERChristian KneesDEUTeam Milram00:21:15  +  00:01:43=43,765 
79 BELJurgen Van De WalleBELQuick Step00:21:15  +  00:01:43=43,765 
80 ITAFabio SabatiniITALiquigas00:21:16  +  00:01:44=43,730 
81 ITADaniele BennatiITALiquigas00:21:16  +  00:01:44=43,730 
82 ESPAmets TxurrukaESPEuskaltel - Euskadi00:21:17  +  00:01:45=43,696 
83 FRAStéphane GoubertFRAAg2r La Mondiale00:21:17  +  00:01:45=43,696 
84 FRASaid HaddouFRABbox Bouygues Telecom00:21:17  +  00:01:45=43,696 
85 ESPJosé Ivan GutierrezESPCaisse d´Epargne00:21:19  +  00:01:47=43,628 
86 ESPJosé Joaquin RojasESPCaisse d´Epargne00:21:19  +  00:01:47=43,628 
87 ESPIñigo CuestaCHECervelo Test Team00:21:20  +  00:01:48=43,594 
88 ESPJuan Manuel GarateNLDRabobank00:21:20  +  00:01:48=43,594 
89 ESPLuis León SánchezESPCaisse d´Epargne00:21:20  +  00:01:48=43,594 
90 AUSStuart O'GradyDNKTeam Saxo Bank00:21:20  +  00:01:48=43,594 
91 FRACyril DesselFRAAg2r La Mondiale00:21:21  +  00:01:49=43,560 
92 FINCharles WegeliusBELSilence-Lotto00:21:21  +  00:01:49=43,560 
93 FRASébastien MinardFRACofidis Le Credit En Ligne00:21:21  +  00:01:49=43,560 
94 AUSBrett LancasterCHECervelo Test Team00:21:22  +  00:01:50=43,526 
95 FRAAmaël MoinardFRACofidis Le Credit En Ligne00:21:22  +  00:01:50=43,526 
96 FRAThierry HupondNLDSkil-Shimano00:21:22  +  00:01:50=43,526 
97 NEDJoost PosthumaNLDRabobank00:21:22  +  00:01:50=43,526 
98 GERBert GrabschUSATeam Columbia-HTC00:21:23  +  00:01:51=43,492 
99 FRAGeoffroy LequatreFRAAgritubel00:21:25  +  00:01:53=43,424 
100 FRAChristophe KernFRACofidis Le Credit En Ligne00:21:26  +  00:01:54=43,390 
101 ITAFilippo PozzatoRUSTeam Katusha00:21:26  +  00:01:54=43,390 
102 ITAMatteo TosattoBELQuick Step00:21:26  +  00:01:54=43,390 
103 AUTBernhard EiselUSATeam Columbia-HTC00:21:26  +  00:01:54=43,390 
104 FRAMickael DelageBELSilence-Lotto00:21:27  +  00:01:55=43,357 
105 GERGrischa NiermannNLDRabobank00:21:27  +  00:01:55=43,357 
106 NEDMartijn MaaskantUSAGarmin-Slipstream00:21:27  +  00:01:55=43,357 
107 RUSVladimir EfimkinFRAAg2r La Mondiale00:21:27  +  00:01:55=43,357 
108 ESPDavid ArroyoESPCaisse d´Epargne00:21:28  +  00:01:56=43,323 
109 LUXKim KirchenUSATeam Columbia-HTC00:21:29  +  00:01:57=43,289 
110 FRAPierre RollandFRABbox Bouygues Telecom00:21:29  +  00:01:57=43,289 
111 NZLHayden RoulstonCHECervelo Test Team00:21:29  +  00:01:57=43,289 
112 FRAChristophe MoreauFRAAgritubel00:21:29  +  00:01:57=43,289 
113 FRAHubert DupontFRAAg2r La Mondiale00:21:29  +  00:01:57=43,289 
114 BELTom BoonenBELQuick Step00:21:30  +  00:01:58=43,256 
115 ESPEgoi MartínezESPEuskaltel - Euskadi00:21:31  +  00:01:59=43,222 
116 UKRYaroslav PopovychKAZAstana Pro Team00:21:31  +  00:01:59=43,222 
117 COLLeonardo DuqueFRACofidis Le Credit En Ligne00:21:32  +  00:02:00=43,189 
118 NEDPiet RooijakkersNLDSkil-Shimano00:21:33  +  00:02:01=43,155 
119 GERSebastian LangBELSilence-Lotto00:21:34  +  00:02:02=43,122 
120 NORThor HushovdCHECervelo Test Team00:21:34  +  00:02:02=43,122 
121 FRABenoit VaugrenardFRAFrancaise Des Jeux00:21:35  +  00:02:03=43,089 
122 KAZDmitriy MuravyevKAZAstana Pro Team00:21:35  +  00:02:03=43,089 
123 ESPJose Luis ArrietaFRAAg2r La Mondiale00:21:35  +  00:02:03=43,089 
124 BELStijn DevolderBELQuick Step00:21:35  +  00:02:03=43,089 
125 FRACyril LemoineNLDSkil-Shimano00:21:36  +  00:02:04=43,056 
126 RUSYury TrofimovFRABbox Bouygues Telecom00:21:37  +  00:02:05=43,022 
127 JPNYukiya ArashiroFRABbox Bouygues Telecom00:21:39  +  00:02:07=42,956 
128 FRAChristophe Le MevelFRAFrancaise Des Jeux00:21:39  +  00:02:07=42,956 
129 FRASébastien JolyFRAFrancaise Des Jeux00:21:41  +  00:02:09=42,890 
130 DENChris Anker SørensenDNKTeam Saxo Bank00:21:42  +  00:02:10=42,857 
131 NZLJulian DeanUSAGarmin-Slipstream00:21:43  +  00:02:11=42,824 
132 ARGJuan Antonio FlechaNLDRabobank00:21:43  +  00:02:11=42,824 
133 GERFabian WegmannDEUTeam Milram00:21:44  +  00:02:12=42,791 
134 ESPJosé Ángel GomezCHECervelo Test Team00:21:45  +  00:02:13=42,759 
135 FRAThomas VoecklerFRABbox Bouygues Telecom00:21:45  +  00:02:13=42,759 
136 ITAMauro SantambrogioITALampre-N.G.C00:21:45  +  00:02:13=42,759 
137 ITADaniele RighiITALampre-N.G.C00:21:46  +  00:02:14=42,726 
138 BELStijn VandenberghRUSTeam Katusha00:21:47  +  00:02:15=42,693 
139 BELGreg Van AvermaetBELSilence-Lotto00:21:47  +  00:02:15=42,693 
140 AUSMark RenshawUSATeam Columbia-HTC00:21:47  +  00:02:15=42,693 
141 FRAAlexandre PichotFRABbox Bouygues Telecom00:21:47  +  00:02:15=42,693 
142 BELJohan VansummerenBELSilence-Lotto00:21:49  +  00:02:17=42,628 
143 ESPEduardo GonzaloFRAAgritubel00:21:49  +  00:02:17=42,628 
144 FRABrice FeilluFRAAgritubel00:21:50  +  00:02:18=42,595 
145 ESPRuben PerezESPEuskaltel - Euskadi00:21:51  +  00:02:19=42,563 
146 BELStaf ScheirlinckxBELSilence-Lotto00:21:52  +  00:02:20=42,530 
147 SUIDavid LoosliITALampre-N.G.C00:21:54  +  00:02:22=42,466 
148 FRAStéphane AugeFRACofidis Le Credit En Ligne00:21:54  +  00:02:22=42,466 
149 FRAAnthony GeslinFRAFrancaise Des Jeux00:21:54  +  00:02:22=42,466 
150 GERGerald CiolekDEUTeam Milram00:21:54  +  00:02:22=42,466 
151 FRAArnaud CoyotESPCaisse d´Epargne00:21:55  +  00:02:23=42,433 
152 RUSNikolai TrusovRUSTeam Katusha00:21:55  +  00:02:23=42,433 
153 NEDKoen De KortNLDSkil-Shimano00:21:56  +  00:02:24=42,401 
154 ESPBingen FernandezFRACofidis Le Credit En Ligne00:21:57  +  00:02:25=42,369 
155 AUTPeter WrolichDEUTeam Milram00:21:58  +  00:02:26=42,337 
156 FRASylvain CalzatiFRAAgritubel00:21:59  +  00:02:27=42,305 
157 RUSAlexandre BotcharovRUSTeam Katusha00:21:59  +  00:02:27=42,305 
158 ESPOscar FreireNLDRabobank00:21:59  +  00:02:27=42,305 
159 ITAMarco BandieraITALampre-N.G.C00:22:04  +  00:02:32=42,145 
160 BELFrederik WillemsITALiquigas00:22:05  +  00:02:33=42,113 
161 AUSMatthew LloydBELSilence-Lotto00:22:06  +  00:02:34=42,081 
162 ESPAlan PerezESPEuskaltel - Euskadi00:22:07  +  00:02:35=42,050 
163 FRAJonathan HivertNLDSkil-Shimano00:22:07  +  00:02:35=42,050 
164 POLMarcin SapaITALampre-N.G.C00:22:08  +  00:02:36=42,018 
165 BLRAliaksandr KuchynskiITALiquigas00:22:09  +  00:02:37=41,986 
166 NEDAlbert TimmerNLDSkil-Shimano00:22:10  +  00:02:38=41,955 
167 SUIGregory RastKAZAstana Pro Team00:22:11  +  00:02:39=41,923 
168 ESPKoldo FernándezESPEuskaltel - Euskadi00:22:12  +  00:02:40=41,892 
169 FRASamuel DumoulinFRACofidis Le Credit En Ligne00:22:14  +  00:02:42=41,829 
170 GERSimon GeschkeNLDSkil-Shimano00:22:15  +  00:02:43=41,798 
171 FRARomain FeilluFRAAgritubel00:22:16  +  00:02:44=41,766 
172 GERAndreas KlierCHECervelo Test Team00:22:17  +  00:02:45=41,735 
173 ESPJoan HorrachRUSTeam Katusha00:22:24  +  00:02:52=41,518 
174 JPNFumiyuki BeppuNLDSkil-Shimano00:22:24  +  00:02:52=41,518 
175 ITADanilo NapolitanoRUSTeam Katusha00:22:24  +  00:02:52=41,518 
176 NEDSteven de JonghBELQuick Step00:22:28  +  00:02:56=41,395 
177 IOMMark CavendishUSATeam Columbia-HTC00:22:46  +  00:03:14=40,849 
178 ITAAngelo FurlanITALampre-N.G.C00:22:51  +  00:03:19=40,700 
179 NEDKenny van HummelNLDSkil-Shimano00:22:56  +  00:03:24=40,552 
180 BLRYauheni HutarovichFRAFrancaise Des Jeux00:23:22  +  00:03:50=39,800 


Todays birthdays.

1883  Cyrille Van Hauwaert
1885  Pierino Albini
1889  Joseph Vandaele
1891  Antoine Rière
1892  Charles Arnulf
1895  Giuseppe Ruffoni
1905  Edmond Berenger
1905  Leon Chene
1905  Paul Le Drogo
1923  Georges Gilles
1935  Jean Anastasi
1938  Tommaso De Pra
1944  Bernard Vifian
1949  Paul Aerts
1950  Roy Schuiten
1962  Antonio Castro
1962  Charly Mottet
1964  Roberto Conti
1964  Denis Leproux
1970  Jo Planckaert